Weather reports worldwide

Advertisment
Kinlochewe, United Kingdom (99092): temperature & dewpoint: 19.09.2018 22:00:00 - 25.09.2018 22:00:00 (BST)Kinlochewe, United Kingdom (99092): temperature -20cm: 19.09.2018 22:00:00 - 25.09.2018 22:00:00 (BST)Kinlochewe, United Kingdom (99092): precipitation: 19.09.2018 22:00:00 - 25.09.2018 22:00:00 (BST)
Date & Time tt [°C] td [°C] tt -20cm [°C] rr [mm]
25.09.2018 22:00:00 14,4 12,8 - 1,2
25.09.2018 21:00:00 14,2 12,6 - 2,6
25.09.2018 20:00:00 13,7 11,8 - 0,8
25.09.2018 19:00:00 13,5 11,1 - 0,2
25.09.2018 18:00:00 13,5 10,5 - 0,0
25.09.2018 17:00:00 13,2 10,2 - 0,0
25.09.2018 16:00:00 13,5 9,1 - 0,0
25.09.2018 15:00:00 13,4 8,5 - 0,0
25.09.2018 14:00:00 12,3 8,8 - 0,4
25.09.2018 13:00:00 10,8 8,3 - 0,8
25.09.2018 12:00:00 11,8 5,5 - 0,0
25.09.2018 11:00:00 12,0 5,0 - 0,0
25.09.2018 10:00:00 11,6 3,7 10,7 0,0
25.09.2018 09:00:00 11,6 4,3 - 0,0
25.09.2018 08:00:00 10,8 5,0 - 0,0
25.09.2018 07:00:00 10,4 5,5 - 0,0
25.09.2018 06:00:00 10,2 7,3 - 0,2
25.09.2018 05:00:00 10,4 6,2 - 0,0
25.09.2018 04:00:00 11,0 6,2 - 0,0
25.09.2018 03:00:00 11,1 6,5 - 0,0
25.09.2018 02:00:00 10,8 7,0 - 0,0
25.09.2018 01:00:00 11,2 7,8 - 0,0
25.09.2018 00:00:00 10,6 7,9 - 0,2
24.09.2018 23:00:00 9,1 7,8 - 0,0
24.09.2018 22:00:00 9,5 8,2 - 0,2
24.09.2018 21:00:00 9,5 8,0 - 0,0
24.09.2018 20:00:00 10,6 7,4 - 0,0
24.09.2018 19:00:00 10,6 6,2 - 0,0
24.09.2018 18:00:00 11,1 6,8 - 0,0
24.09.2018 17:00:00 12,1 5,2 - 0,0
24.09.2018 16:00:00 12,2 5,9 - 0,0
24.09.2018 15:00:00 12,5 7,2 - 0,0
24.09.2018 14:00:00 12,0 7,4 - 0,4
24.09.2018 13:00:00 10,1 6,9 - 0,2
24.09.2018 12:00:00 9,1 7,1 - 0,2
24.09.2018 11:00:00 8,4 6,6 - 1,0
24.09.2018 10:00:00 9,1 7,9 10,7 0,0
24.09.2018 09:00:00 7,8 6,7 - 0,4
24.09.2018 08:00:00 6,4 5,9 - 0,8
24.09.2018 07:00:00 6,4 5,8 - 2,0
24.09.2018 06:00:00 7,6 6,3 - 1,4
24.09.2018 05:00:00 6,8 6,0 - 0,2
24.09.2018 04:00:00 7,3 5,4 - 1,2
24.09.2018 03:00:00 7,3 5,2 - 2,4
24.09.2018 02:00:00 8,1 5,0 - 0,2
24.09.2018 01:00:00 7,9 5,9 - 0,8
24.09.2018 00:00:00 7,9 5,6 - 1,0
23.09.2018 23:00:00 6,8 5,3 - 0,0
23.09.2018 22:00:00 4,4 3,8 - 0,0
23.09.2018 21:00:00 4,2 3,3 - 0,2
23.09.2018 20:00:00 6,0 4,3 - 0,0
23.09.2018 19:00:00 8,1 4,5 - 0,2
23.09.2018 18:00:00 8,9 5,9 - 0,4
23.09.2018 17:00:00 8,4 5,4 - 0,4
23.09.2018 16:00:00 9,3 6,1 - 0,4
23.09.2018 15:00:00 9,0 6,4 - 1,0
23.09.2018 14:00:00 9,9 5,9 - 0,0
23.09.2018 13:00:00 10,2 6,3 - 0,0
23.09.2018 12:00:00 8,6 5,4 - 0,6
23.09.2018 11:00:00 8,8 6,7 - 0,2
23.09.2018 10:00:00 8,4 7,3 10,9 0,0
23.09.2018 09:00:00 6,2 6,0 - 0,2
23.09.2018 08:00:00 6,0 5,9 - 0,8
23.09.2018 07:00:00 5,6 5,6 - 0,4
23.09.2018 06:00:00 4,8 4,7 - 0,0
23.09.2018 05:00:00 4,9 4,9 - 0,4
23.09.2018 04:00:00 3,9 3,8 - 0,2
23.09.2018 03:00:00 4,3 4,2 - 0,0
23.09.2018 02:00:00 5,0 4,9 - 0,0
23.09.2018 01:00:00 5,6 5,4 - 0,6
23.09.2018 00:00:00 5,6 5,4 - 0,6
22.09.2018 23:00:00 5,8 5,6 - 0,0
22.09.2018 22:00:00 5,4 5,2 - 0,0
22.09.2018 21:00:00 6,2 5,9 - 0,2
22.09.2018 20:00:00 6,5 5,9 - 0,0
22.09.2018 19:00:00 7,4 6,5 - 1,8
22.09.2018 18:00:00 9,1 6,7 - 0,0
22.09.2018 17:00:00 8,6 5,7 - 0,4
22.09.2018 16:00:00 8,4 6,0 - 0,6
22.09.2018 15:00:00 11,2 7,4 - 0,0
22.09.2018 14:00:00 11,5 7,1 - 0,0
22.09.2018 13:00:00 9,7 7,6 - 0,6
22.09.2018 12:00:00 9,8 6,4 - 0,0
22.09.2018 11:00:00 9,3 6,3 - 0,8
22.09.2018 10:00:00 8,7 6,9 11,2 1,8
22.09.2018 09:00:00 8,9 6,7 - 0,6
22.09.2018 08:00:00 9,0 5,8 - 0,4
22.09.2018 07:00:00 8,1 6,5 - 1,4
22.09.2018 06:00:00 8,7 4,9 - 0,4
22.09.2018 05:00:00 8,8 4,7 - 0,2
22.09.2018 04:00:00 8,0 5,0 - 2,0
22.09.2018 03:00:00 8,7 4,4 - 0,0
22.09.2018 02:00:00 9,0 4,8 - 0,8
22.09.2018 01:00:00 8,4 5,3 - 1,2
22.09.2018 00:00:00 8,9 5,1 - 0,6
21.09.2018 23:00:00 9,2 5,3 - 0,2
21.09.2018 22:00:00 9,1 4,4 - 0,0
21.09.2018 21:00:00 9,2 4,7 - 0,8
21.09.2018 20:00:00 9,3 5,1 - 0,2
21.09.2018 19:00:00 8,5 6,0 - 0,0
21.09.2018 18:00:00 8,8 7,0 - 0,8
21.09.2018 17:00:00 8,8 6,4 - 1,2
21.09.2018 16:00:00 9,5 5,3 - 0,4
21.09.2018 15:00:00 10,2 6,1 - 0,0
21.09.2018 14:00:00 11,5 6,7 - 0,6
21.09.2018 13:00:00 11,2 5,7 - 0,0
21.09.2018 12:00:00 9,8 7,0 - 0,2
21.09.2018 11:00:00 8,5 6,8 - 0,0
21.09.2018 10:00:00 8,0 6,7 11,4 0,6
21.09.2018 09:00:00 8,4 7,4 - 0,8
21.09.2018 08:00:00 7,6 7,5 - 0,4
21.09.2018 07:00:00 5,9 5,8 - 0,0
21.09.2018 06:00:00 3,7 3,5 - 0,0
21.09.2018 05:00:00 3,7 3,3 - 0,0
21.09.2018 04:00:00 4,6 4,2 - 0,0
21.09.2018 03:00:00 5,3 4,7 - 0,0
21.09.2018 02:00:00 5,8 5,2 - 0,0
21.09.2018 01:00:00 5,3 4,7 - 0,0
21.09.2018 00:00:00 6,3 5,8 - 0,0
20.09.2018 23:00:00 6,4 5,8 - 0,0
20.09.2018 22:00:00 7,2 6,2 - 0,0
20.09.2018 21:00:00 7,9 6,3 - 0,0
20.09.2018 20:00:00 9,3 6,6 - 0,0
20.09.2018 19:00:00 10,5 7,0 - 0,0
20.09.2018 18:00:00 11,5 6,6 - 0,0
20.09.2018 17:00:00 11,6 6,5 - 0,0
20.09.2018 16:00:00 11,6 6,9 - 0,0
20.09.2018 15:00:00 11,8 6,8 - 0,0
20.09.2018 14:00:00 10,9 8,1 - 0,4
20.09.2018 13:00:00 11,3 9,1 - 1,2
20.09.2018 12:00:00 12,5 7,9 - 0,4
20.09.2018 11:00:00 9,8 7,1 - 2,4
20.09.2018 10:00:00 10,5 5,8 11,7 0,6
20.09.2018 09:00:00 11,3 3,5 - 0,0
20.09.2018 08:00:00 8,8 4,7 - 0,8
20.09.2018 07:00:00 10,8 2,3 - 0,4
20.09.2018 06:00:00 10,4 4,3 - 0,0
20.09.2018 05:00:00 11,3 4,1 - 0,0
20.09.2018 04:00:00 11,1 4,4 - 0,4
20.09.2018 03:00:00 10,7 4,7 - 0,0
20.09.2018 02:00:00 10,9 5,1 - 0,2
20.09.2018 01:00:00 11,2 4,0 - 0,0
20.09.2018 00:00:00 10,4 5,0 - 0,8
19.09.2018 23:00:00 10,0 6,3 - 0,8
19.09.2018 22:00:00 9,8 5,7 - 0,4

tt = temperature
td = dewpoint
tt -20cm = temperature -20cm
rr = precipitation

Next stations